Location: *
(38.9555°S, 57.3572°E)
Time: 01:00:20
(UTC+00:00)

FALCON 9 DEB - Pass Details

Date: 15 July 2020
Orbit: 429 x 440 km, 53.0° (Epoch: 06 August)

Event Time Altitude Azimuth Distance (km) Brightness Sun altitude
Rises 13:38:42 0° 325° (NW) 2,401 8.0 -6.3°
Reaches altitude 10° 13:40:50 10° 330° (NNW) 1,542 6.8 -6.7°
Maximum altitude 13:44:12 49° 45° (NE) 579 3.6 -7.3°
Enters shadow 13:47:36 10° 121° (ESE) 1,561 5.3 -7.9°
